Time,TemperatureF,DewpointF,PressureIn,WindDirection,WindDirectionDegrees,WindSpeedMPH,WindSpeedGustMPH,Humidity,HourlyPrecipIn,Conditions,Clouds,dailyrainin,SolarRadiationWatts/m^2,SoftwareType,DateUTC
2013-05-19 00:09:00,46.9,43.5,30.23,NNE,29,2.0,6.0,88,0.00,,CLR,0.00,0.00,VWS V14.01,2013-05-19 04:09:00,
2013-05-19 00:19:00,46.5,43.4,30.24,NE,46,1.0,5.0,89,0.00,,CLR,0.00,0.00,VWS V14.01,2013-05-19 04:19:00,
2013-05-19 00:29:00,46.2,43.4,30.24,ENE,59,1.0,6.0,90,0.00,,CLR,0.00,0.00,VWS V14.01,2013-05-19 04:29:00,
2013-05-19 00:39:00,45.9,43.1,30.24,NE,44,0.0,5.0,90,0.00,,CLR,0.00,0.00,VWS V14.01,2013-05-19 04:39:00,
2013-05-19 00:49:00,45.8,43.3,30.24,NE,45,1.0,5.0,91,0.00,,SCT007,0.00,0.00,VWS V14.01,2013-05-19 04:49:00,
2013-05-19 00:59:00,45.7,43.2,30.24,ENE,72,2.0,7.0,91,0.00,,SCT007,0.00,0.00,VWS V14.01,2013-05-19 04:59:00,
2013-05-19 01:09:00,45.6,43.4,30.23,ENE,61,0.0,5.0,92,0.00,,SCT007,0.00,0.00,VWS V14.01,2013-05-19 05:09:00,
2013-05-19 01:19:00,45.5,43.3,30.24,NNE,32,0.0,6.0,92,0.00,,SCT007,0.00,0.00,VWS V14.01,2013-05-19 05:19:00,
2013-05-19 01:29:00,45.2,43.0,30.24,NE,51,0.0,4.0,92,0.00,,SCT007,0.00,0.00,VWS V14.01,2013-05-19 05:29:00,
2013-05-19 01:39:00,45.2,43.0,30.24,NE,51,0.0,4.0,92,0.00,,SCT007,0.00,0.00,VWS V14.01,2013-05-19 05:39:00,
2013-05-19 01:49:00,45.0,43.1,30.24,NE,51,0.0,4.0,93,0.00,,OVC007,0.00,0.00,VWS V14.01,2013-05-19 05:49:00,
2013-05-19 01:59:00,44.9,43.0,30.24,NE,51,0.0,4.0,93,0.00,,OVC007,0.00,0.00,VWS V14.01,2013-05-19 05:59:00,
2013-05-19 02:09:00,45.0,43.1,30.24,NE,51,0.0,1.0,93,0.00,,OVC007,0.00,0.00,VWS V14.01,2013-05-19 06:09:00,
2013-05-19 02:19:00,45.0,43.1,30.24,NE,51,0.0,1.0,93,0.00,,OVC007,0.00,0.00,VWS V14.01,2013-05-19 06:19:00,
2013-05-19 02:29:00,44.8,42.9,30.24,NE,51,0.0,0.0,93,0.00,,OVC007,0.00,0.00,VWS V14.01,2013-05-19 06:29:00,
2013-05-19 02:39:00,44.7,43.1,30.24,NE,51,0.0,0.0,94,0.00,,OVC007,0.00,0.00,VWS V14.01,2013-05-19 06:39:00,
2013-05-19 02:49:00,44.7,43.1,30.24,NE,51,0.0,0.0,94,0.00,,OVC007,0.00,0.00,VWS V14.01,2013-05-19 06:49:00,
2013-05-19 02:59:00,44.5,42.9,30.24,NE,51,0.0,0.0,94,0.00,,OVC007,0.00,0.00,VWS V14.01,2013-05-19 06:59:00,
2013-05-19 03:09:00,44.2,42.6,30.24,NE,51,0.0,2.0,94,0.00,,OVC007,0.00,0.00,VWS V14.01,2013-05-19 07:09:00,
2013-05-19 03:20:00,44.0,42.4,30.24,NE,51,0.0,0.0,94,0.00,,OVC007,0.00,0.00,VWS V14.01,2013-05-19 07:20:00,
2013-05-19 03:29:00,44.1,42.5,30.24,NE,51,0.0,1.0,94,0.00,,OVC007,0.00,0.00,VWS V14.01,2013-05-19 07:29:00,
2013-05-19 03:39:00,44.2,42.6,30.25,NE,51,0.0,0.0,94,0.00,,OVC007,0.00,0.00,VWS V14.01,2013-05-19 07:39:00,
2013-05-19 03:49:00,44.0,42.4,30.24,NE,51,0.0,2.0,94,0.00,,OVC007,0.00,0.00,VWS V14.01,2013-05-19 07:49:00,
2013-05-19 03:59:00,43.9,42.3,30.25,NE,51,0.0,0.0,94,0.00,,OVC007,0.00,0.00,VWS V14.01,2013-05-19 07:59:00,
2013-05-19 04:09:00,43.7,42.1,30.25,NE,51,0.0,2.0,94,0.00,,OVC007,0.00,0.00,VWS V14.01,2013-05-19 08:09:00,
2013-05-19 04:19:00,43.8,42.2,30.25,NE,51,0.0,0.0,94,0.00,,OVC007,0.00,0.00,VWS V14.01,2013-05-19 08:19:00,
2013-05-19 04:29:00,43.8,42.2,30.25,NE,51,0.0,0.0,94,0.00,,OVC007,0.00,0.00,VWS V14.01,2013-05-19 08:29:00,
2013-05-19 04:39:00,43.8,42.2,30.25,NE,51,0.0,1.0,94,0.00,,OVC007,0.00,0.00,VWS V14.01,2013-05-19 08:39:00,
2013-05-19 04:49:00,43.8,42.2,30.25,NE,51,0.0,1.0,94,0.00,,OVC009,0.00,0.00,VWS V14.01,2013-05-19 08:49:00,
2013-05-19 04:59:00,43.8,42.5,30.25,NE,51,0.0,1.0,95,0.00,,OVC009,0.00,0.00,VWS V14.01,2013-05-19 08:59:00,
2013-05-19 05:09:00,43.9,42.6,30.25,NE,51,0.0,0.0,95,0.00,,OVC009,0.00,0.00,VWS V14.01,2013-05-19 09:09:00,
2013-05-19 05:19:00,43.9,42.6,30.26,NE,51,0.0,3.0,95,0.00,,OVC009,0.00,0.00,VWS V14.01,2013-05-19 09:19:00,
2013-05-19 05:29:00,44.0,42.7,30.26,NE,51,0.0,1.0,95,0.00,,OVC009,0.00,5.00,VWS V14.01,2013-05-19 09:29:00,
2013-05-19 05:39:00,44.1,42.8,30.26,NE,51,0.0,2.0,95,0.00,,OVC009,0.00,12.00,VWS V14.01,2013-05-19 09:39:00,
2013-05-19 05:49:00,44.1,42.8,30.27,NE,51,0.0,1.0,95,0.00,,BKN009,0.00,18.00,VWS V14.01,2013-05-19 09:49:00,
2013-05-19 05:59:00,44.0,42.7,30.27,NE,51,0.0,0.0,95,0.00,,BKN009,0.00,21.00,VWS V14.01,2013-05-19 09:59:00,
2013-05-19 06:09:00,44.0,42.7,30.27,NNE,21,0.0,1.0,95,0.00,,BKN009,0.00,26.00,VWS V14.01,2013-05-19 10:09:00,
2013-05-19 06:19:00,44.1,42.8,30.27,NNE,21,0.0,1.0,95,0.00,,BKN009,0.00,32.00,VWS V14.01,2013-05-19 10:19:00,
2013-05-19 06:29:00,44.2,42.9,30.27,NNE,21,0.0,0.0,95,0.00,,BKN009,0.00,35.00,VWS V14.01,2013-05-19 10:29:00,
2013-05-19 06:39:00,44.0,42.7,30.28,NNE,21,0.0,1.0,95,0.00,,BKN009,0.00,70.00,VWS V14.01,2013-05-19 10:39:00,
2013-05-19 06:49:00,44.1,42.8,30.28,NNE,21,0.0,0.0,95,0.00,,OVC009,0.00,60.00,VWS V14.01,2013-05-19 10:49:00,
2013-05-19 06:59:00,44.5,43.2,30.28,NNE,21,0.0,0.0,95,0.00,,OVC009,0.00,155.00,VWS V14.01,2013-05-19 10:59:00,
2013-05-19 07:09:00,44.9,43.6,30.28,NNE,20,0.0,0.0,95,0.00,,OVC009,0.00,84.00,VWS V14.01,2013-05-19 11:09:00,
2013-05-19 07:19:00,44.6,43.3,30.28,NNE,14,0.0,2.0,95,0.00,,OVC009,0.00,74.00,VWS V14.01,2013-05-19 11:19:00,
2013-05-19 07:29:00,44.7,43.4,30.28,NNE,14,0.0,1.0,95,0.00,,OVC009,0.00,149.00,VWS V14.01,2013-05-19 11:29:00,
2013-05-19 07:39:00,44.5,43.2,30.29,NNE,14,0.0,2.0,95,0.00,,OVC009,0.00,139.00,VWS V14.01,2013-05-19 11:39:00,
2013-05-19 07:49:00,44.9,43.6,30.29,NNE,14,0.0,0.0,95,0.00,,OVC011,0.00,151.00,VWS V14.01,2013-05-19 11:49:00,
2013-05-19 07:59:00,45.0,43.7,30.29,NNE,14,0.0,2.0,95,0.00,,OVC011,0.00,125.00,VWS V14.01,2013-05-19 11:59:00,
2013-05-19 08:09:00,45.0,43.7,30.29,NNE,14,0.0,2.0,95,0.00,,OVC011,0.00,163.00,VWS V14.01,2013-05-19 12:09:00,
2013-05-19 08:19:00,45.3,44.0,30.29,NNE,14,0.0,1.0,95,0.00,,OVC011,0.00,295.00,VWS V14.01,2013-05-19 12:19:00,
2013-05-19 08:29:00,45.7,44.3,30.29,NNE,15,0.0,1.0,95,0.00,,OVC011,0.00,276.00,VWS V14.01,2013-05-19 12:29:00,
2013-05-19 08:39:00,46.3,45.0,30.29,NNE,14,0.0,3.0,95,0.00,,OVC011,0.00,309.00,VWS V14.01,2013-05-19 12:39:00,
2013-05-19 08:49:00,47.4,46.0,30.29,West,263,0.0,3.0,95,0.00,,OVC011,0.00,504.00,VWS V14.01,2013-05-19 12:49:00,
2013-05-19 08:59:00,49.4,48.0,30.29,South,169,0.0,1.0,95,0.00,,OVC011,0.00,555.00,VWS V14.01,2013-05-19 12:59:00,
2013-05-19 09:09:00,50.7,48.8,30.29,SSE,160,0.0,3.0,93,0.00,,OVC011,0.00,550.00,VWS V14.01,2013-05-19 13:09:00,
2013-05-19 09:19:00,51.5,47.8,30.29,SSW,203,0.0,7.0,87,0.00,,OVC011,0.00,580.00,VWS V14.01,2013-05-19 13:19:00,
2013-05-19 09:29:00,52.4,47.7,30.29,SSW,203,0.0,5.0,84,0.00,,OVC011,0.00,694.00,VWS V14.01,2013-05-19 13:29:00,
2013-05-19 09:39:00,53.6,48.2,30.29,SSW,209,0.0,5.0,82,0.00,,OVC011,0.00,684.00,VWS V14.01,2013-05-19 13:39:00,
2013-05-19 09:49:00,54.9,48.2,30.28,SE,128,3.0,3.0,78,0.00,,OVC015,0.00,758.00,VWS V14.01,2013-05-19 13:49:00,
2013-05-19 09:59:00,55.2,48.5,30.29,South,187,0.0,5.0,78,0.00,,OVC015,0.00,475.00,VWS V14.01,2013-05-19 13:59:00,
2013-05-19 10:09:00,56.4,49.3,30.29,ESE,117,0.0,2.0,77,0.00,,SCT015,0.00,670.00,VWS V14.01,2013-05-19 14:09:00,
2013-05-19 10:19:00,57.3,48.7,30.28,ENE,65,3.0,4.0,73,0.00,,SCT015,0.00,772.00,VWS V14.01,2013-05-19 14:19:00,
2013-05-19 10:29:00,57.9,49.3,30.28,SE,146,1.0,5.0,73,0.00,,SCT015,0.00,870.00,VWS V14.01,2013-05-19 14:29:00,
2013-05-19 10:39:00,58.2,49.2,30.28,SSE,158,0.0,7.0,72,0.00,,SCT015,0.00,622.00,VWS V14.01,2013-05-19 14:39:00,
2013-05-19 10:49:00,59.0,49.6,30.28,East,100,0.0,3.0,71,0.00,,CLR,0.00,566.00,VWS V14.01,2013-05-19 14:49:00,
2013-05-19 10:59:00,60.3,50.5,30.28,SSE,160,0.0,4.0,70,0.00,,CLR,0.00,858.00,VWS V14.01,2013-05-19 14:59:00,
2013-05-19 11:09:00,60.9,51.5,30.28,East,95,7.0,7.0,71,0.00,,CLR,0.00,703.00,VWS V14.01,2013-05-19 15:09:00,
2013-05-19 11:19:00,60.4,50.6,30.28,ENE,60,3.0,8.0,70,0.00,,CLR,0.00,803.00,VWS V14.01,2013-05-19 15:19:00,
2013-05-19 11:29:00,61.4,50.8,30.27,NE,46,1.0,8.0,68,0.00,,CLR,0.00,809.00,VWS V14.01,2013-05-19 15:29:00,
2013-05-19 11:39:00,61.5,50.5,30.27,East,86,5.0,10.0,67,0.00,,CLR,0.00,937.00,VWS V14.01,2013-05-19 15:39:00,
2013-05-19 11:49:00,63.0,51.5,30.27,ESE,108,0.0,9.0,66,0.00,,CLR,0.00,1067.00,VWS V14.01,2013-05-19 15:49:00,
2013-05-19 11:59:00,64.3,51.5,30.26,East,101,2.0,6.0,63,0.00,,CLR,0.00,949.00,VWS V14.01,2013-05-19 15:59:00,
2013-05-19 12:09:00,63.1,51.6,30.26,East,84,0.0,10.0,66,0.00,,CLR,0.00,803.00,VWS V14.01,2013-05-19 16:09:00,
2013-05-19 12:19:00,63.5,51.1,30.26,ESE,110,2.0,10.0,64,0.00,,CLR,0.00,332.00,VWS V14.01,2013-05-19 16:19:00,
2013-05-19 12:29:00,62.1,51.0,30.26,ENE,69,0.0,9.0,67,0.00,,CLR,0.00,243.00,VWS V14.01,2013-05-19 16:29:00,
2013-05-19 12:39:00,62.0,52.1,30.25,East,80,1.0,7.0,70,0.00,,CLR,0.00,724.00,VWS V14.01,2013-05-19 16:39:00,
2013-05-19 12:49:00,62.4,51.3,30.25,East,80,6.0,8.0,67,0.00,,CLR,0.00,308.00,VWS V14.01,2013-05-19 16:49:00,
2013-05-19 12:59:00,62.1,51.4,30.24,ESE,103,1.0,8.0,68,0.00,,CLR,0.00,188.00,VWS V14.01,2013-05-19 16:59:00,
2013-05-19 13:09:00,62.3,50.8,30.24,ESE,106,3.0,3.0,66,0.00,,CLR,0.00,350.00,VWS V14.01,2013-05-19 17:09:00,
2013-05-19 13:19:00,63.0,52.3,30.24,SE,125,1.0,4.0,68,0.00,,CLR,0.00,216.00,VWS V14.01,2013-05-19 17:19:00,
2013-05-19 13:29:00,62.2,51.1,30.23,East,88,2.0,8.0,67,0.00,,CLR,0.00,169.00,VWS V14.01,2013-05-19 17:29:00,
2013-05-19 13:39:00,62.2,50.7,30.23,East,101,0.0,6.0,66,0.00,,CLR,0.00,308.00,VWS V14.01,2013-05-19 17:39:00,
2013-05-19 13:49:00,62.9,51.4,30.23,ESE,122,3.0,7.0,66,0.00,,CLR,0.00,373.00,VWS V14.01,2013-05-19 17:49:00,
2013-05-19 13:59:00,63.1,51.2,30.22,ESE,103,0.0,5.0,65,0.00,,SCT043,0.00,132.00,VWS V14.01,2013-05-19 17:59:00,
2013-05-19 14:09:00,62.5,51.0,30.22,East,92,2.0,10.0,66,0.00,,SCT043,0.00,162.00,VWS V14.01,2013-05-19 18:09:00,
2013-05-19 14:19:00,62.5,51.4,30.22,SSE,164,0.0,7.0,67,0.00,,SCT043,0.00,86.00,VWS V14.01,2013-05-19 18:19:00,
2013-05-19 14:29:00,62.0,50.9,30.22,SW,215,3.0,5.0,67,0.00,,SCT043,0.00,69.00,VWS V14.01,2013-05-19 18:29:00,
2013-05-19 14:39:00,61.7,50.6,30.22,SSW,212,0.0,6.0,67,0.00,,SCT043,0.00,98.00,VWS V14.01,2013-05-19 18:39:00,
2013-05-19 14:49:00,62.0,50.9,30.21,SSW,205,0.0,4.0,67,0.00,,OVC070,0.00,186.00,VWS V14.01,2013-05-19 18:49:00,
2013-05-19 14:59:00,62.4,50.5,30.21,SSW,205,1.0,4.0,65,0.00,,OVC070,0.00,107.00,VWS V14.01,2013-05-19 18:59:00,
2013-05-19 15:09:00,62.2,50.3,30.21,SSW,205,0.0,4.0,65,0.00,,OVC070,0.00,69.00,VWS V14.01,2013-05-19 19:09:00,
2013-05-19 15:19:00,61.9,50.8,30.21,SSW,198,0.0,7.0,67,0.00,,OVC070,0.00,40.00,VWS V14.01,2013-05-19 19:19:00,
2013-05-19 15:29:00,60.9,50.7,30.22,SW,217,2.0,11.0,69,0.00,,OVC070,0.00,28.00,VWS V14.01,2013-05-19 19:29:00,
2013-05-19 15:39:00,60.3,50.5,30.21,SW,215,3.0,7.0,70,0.00,,OVC070,0.00,30.00,VWS V14.01,2013-05-19 19:39:00,
2013-05-19 15:49:00,60.0,50.6,30.21,SW,220,0.0,12.0,71,0.00,,OVC055,0.00,25.00,VWS V14.01,2013-05-19 19:49:00,
2013-05-19 15:59:00,59.6,50.6,30.21,SW,221,5.0,8.0,72,0.00,,OVC055,0.00,21.00,VWS V14.01,2013-05-19 19:59:00,
2013-05-19 16:09:00,59.4,50.8,30.21,SW,223,4.0,9.0,73,0.00,,OVC055,0.00,26.00,VWS V14.01,2013-05-19 20:09:00,
2013-05-19 16:19:00,59.0,50.4,30.21,SW,223,0.0,4.0,73,0.00,,OVC055,0.00,25.00,VWS V14.01,2013-05-19 20:19:00,
2013-05-19 16:29:00,59.0,50.7,30.21,SW,223,0.0,4.0,74,0.00,,OVC055,0.00,23.00,VWS V14.01,2013-05-19 20:29:00,
2013-05-19 16:39:00,58.6,50.7,30.21,SW,221,3.0,9.0,75,0.00,,OVC055,0.00,39.00,VWS V14.01,2013-05-19 20:39:00,
2013-05-19 16:49:00,58.0,50.5,30.21,SW,219,0.0,10.0,76,0.00,,OVC055,0.00,39.00,VWS V14.01,2013-05-19 20:49:00,
2013-05-19 16:59:00,57.6,51.1,30.21,WSW,244,0.0,6.0,79,0.00,,OVC055,0.00,37.00,VWS V14.01,2013-05-19 20:59:00,
2013-05-19 17:09:00,57.1,51.0,30.22,SW,233,0.0,7.0,80,0.00,,OVC055,0.00,30.00,VWS V14.01,2013-05-19 21:09:00,
2013-05-19 17:19:00,56.6,50.8,30.21,WSW,245,0.0,8.0,81,0.00,,OVC055,0.00,47.00,VWS V14.01,2013-05-19 21:19:00,
2013-05-19 17:29:00,56.0,50.9,30.21,WSW,246,3.0,7.0,83,0.00,,OVC055,0.00,65.00,VWS V14.01,2013-05-19 21:29:00,
2013-05-19 17:39:00,55.5,51.4,30.21,WSW,248,0.0,6.0,86,0.01,,OVC055,0.01,79.00,VWS V14.01,2013-05-19 21:39:00,
2013-05-19 17:49:00,55.0,51.5,30.21,SW,236,0.0,7.0,88,0.01,,BKN060,0.01,60.00,VWS V14.01,2013-05-19 21:49:00,
2013-05-19 17:59:00,54.6,50.8,30.21,SW,219,4.0,7.0,87,0.01,,BKN060,0.01,46.00,VWS V14.01,2013-05-19 21:59:00,
2013-05-19 18:09:00,54.3,50.5,30.21,SW,225,5.0,8.0,87,0.01,,BKN060,0.01,54.00,VWS V14.01,2013-05-19 22:09:00,
2013-05-19 18:19:00,54.0,50.2,30.22,SW,219,8.0,8.0,87,0.01,,BKN060,0.01,35.00,VWS V14.01,2013-05-19 22:19:00,
2013-05-19 18:29:00,53.7,50.5,30.22,SW,219,0.0,8.0,89,0.02,,BKN060,0.02,30.00,VWS V14.01,2013-05-19 22:29:00,
2013-05-19 18:39:00,53.5,50.6,30.21,SSW,193,1.0,7.0,90,0.02,,BKN060,0.02,32.00,VWS V14.01,2013-05-19 22:39:00,
2013-05-19 18:49:00,53.2,50.7,30.21,South,169,2.0,7.0,91,0.01,,-RA,0.02,30.00,VWS V14.01,2013-05-19 22:49:00,
2013-05-19 18:59:00,53.0,50.7,30.20,SSE,168,2.0,7.0,92,0.01,,-RA,0.02,30.00,VWS V14.01,2013-05-19 22:59:00,
2013-05-19 19:09:00,53.0,51.0,30.20,SSW,210,4.0,6.0,93,0.01,,-RA,0.02,12.00,VWS V14.01,2013-05-19 23:09:00,
2013-05-19 19:19:00,52.8,50.8,30.20,SSW,207,4.0,9.0,93,0.01,,-RA,0.02,7.00,VWS V14.01,2013-05-19 23:19:00,
2013-05-19 19:29:00,52.8,51.1,30.20,SW,214,3.0,9.0,94,0.01,,-RA,0.02,0.00,VWS V14.01,2013-05-19 23:29:00,
2013-05-19 19:39:00,52.8,51.1,30.20,SW,225,3.0,7.0,94,0.00,,-RA,0.02,0.00,VWS V14.01,2013-05-19 23:39:00,
2013-05-19 19:49:00,52.8,51.1,30.20,SW,218,3.0,12.0,94,0.00,,OVC080,0.02,0.00,VWS V14.01,2013-05-19 23:49:00,
2013-05-19 19:59:00,52.7,50.7,30.20,SSW,213,7.0,11.0,93,0.00,,OVC080,0.02,0.00,VWS V14.01,2013-05-19 23:59:00,